Torrington, WY

9:47 AM MST on January 20, 2017 (GMT -0700)
Torrington Municipal

Weather History for KTOR - November, 2012

Change the Weather History Date:

Tuesday, November 20, 2012

  Actual Average Record
Temperature  
Mean Temperature 48 °F 34 °F  
Max Temperature 68 °F 47 °F 70 °F (2016)
Min Temperature 28 °F 20 °F 9 °F (2000)
Degree Days  
Heating Degree Days 17 31  
Month to date heating degree days 462 537  
Since 1 July heating degree days 1088 1247  
Cooling Degree Days 0 0  
Month to date cooling degree days 0 0  
Year to date cooling degree days 1021 678  
Moisture  
Dew Point 25 °F    
Average Humidity 49    
Maximum Humidity 78    
Minimum Humidity 19    
Precipitation  
Precipitation 0.00 in 0.01 in 0.11 in (2015)
Month to date precipitation 0.05 0.33  
Year to date precipitation 6.96 13.73  
Sea Level Pressure  
Sea Level Pressure 30.07 in    
Wind  
Wind Speed 10 mph (SSW)    
Max Wind Speed 29 mph    
Max Gust Speed 36 mph    
Visibility 10 miles    
Events      
T = Trace of Precipitation, MM = Missing Value Source: NWS Daily Summary

Daily Weather History Graph

Daily Weather History Graph

Search for Another Location

Airport or City:

Trip Planner

Search our weather history database for the weather conditions in past years. The results will help you decide how hot, cold, wet, or windy it might be!

Date:

Astronomy

Nov. 20, 2012 Rise Set
Actual Time 6:53 AM MST 4:31 PM MST
Civil Twilight 6:22 AM MST 5:01 PM MST
Nautical Twilight 5:48 AM MST 5:35 PM MST
Astronomical Twilight 5:15 AM MST 6:08 PM MST
Moon 12:25 PM MST No Moon Set
Length of Visible Light 10h 38m
Length of Day
9h 37m
First Quarter, 52% of the Moon is Illuminated
Nov 20
First Quarter
Nov 28
Full
Dec 6
Last Quarter
Dec 13
New
Dec 19
First Quarter

Hourly Weather History & Observations

Time (MST) Temp. Windchill Dew Point Humidity Pressure Visibility Wind Dir Wind Speed Gust Speed Precip Events Conditions
12:53 AM 30.9 °F - 24.1 °F 76% 30.15 in 10.0 mi Calm Calm - N/A   Clear
1:53 AM 35.1 °F 30.1 °F 25.0 °F 67% 30.13 in 10.0 mi South 5.8 mph - N/A   Clear
2:53 AM 35.1 °F 27.4 °F 25.0 °F 67% 30.12 in 10.0 mi SE 10.4 mph - N/A   Clear
3:53 AM 30.0 °F 23.2 °F 23.0 °F 75% 30.13 in 10.0 mi ESE 6.9 mph - N/A   Clear
4:53 AM 28.9 °F - 23.0 °F 78% 30.14 in 10.0 mi Calm Calm - N/A   Clear
5:53 AM 28.9 °F 23.9 °F 23.0 °F 78% 30.16 in 10.0 mi NE 4.6 mph - N/A   Clear
6:53 AM 30.0 °F 25.2 °F 23.0 °F 75% 30.16 in 10.0 mi ESE 4.6 mph - N/A   Clear
7:53 AM 41.0 °F 37.1 °F 26.1 °F 55% 30.13 in 10.0 mi WSW 5.8 mph - N/A   Clear
8:53 AM 52.0 °F - 27.0 °F 38% 30.11 in 10.0 mi SSW 6.9 mph - N/A   Clear
9:53 AM 61.0 °F - 26.1 °F 26% 30.12 in 10.0 mi WSW 23.0 mph 27.6 mph N/A   Clear
10:08 AM 60.8 °F - 24.8 °F 25% 30.13 in 10.0 mi WSW 25.3 mph 34.5 mph N/A   Clear
10:53 AM 63.0 °F - 24.1 °F 23% 30.07 in 10.0 mi WSW 20.7 mph 33.4 mph N/A   Clear
12:53 PM 66.9 °F - 24.1 °F 20% 30.02 in 10.0 mi WSW 23.0 mph 27.6 mph N/A   Clear
1:53 PM 68.0 °F - 24.1 °F 19% 29.98 in 10.0 mi WSW 20.7 mph 26.5 mph N/A   Clear
2:53 PM 66.9 °F - 26.1 °F 21% 29.99 in 10.0 mi WSW 15.0 mph 24.2 mph N/A   Clear
3:53 PM 64.9 °F - 25.0 °F 22% 30.01 in 10.0 mi West 13.8 mph - N/A   Clear
4:53 PM 57.0 °F - 25.0 °F 29% 30.04 in 10.0 mi WSW 9.2 mph - N/A   Clear
5:53 PM 52.0 °F - 25.0 °F 35% 30.06 in 10.0 mi WSW 6.9 mph - N/A   Clear
6:53 PM 48.9 °F - 25.0 °F 39% 30.06 in 10.0 mi WNW 5.8 mph - N/A   Clear
7:53 PM 44.1 °F - 26.1 °F 49% 30.04 in 10.0 mi Calm Calm - N/A   Clear
8:53 PM 44.1 °F 38.6 °F 25.0 °F 47% 30.01 in 10.0 mi SSE 10.4 mph - N/A   Clear
9:53 PM 44.1 °F 39.5 °F 25.0 °F 47% 29.98 in 10.0 mi ESE 8.1 mph - N/A   Clear
10:53 PM 42.1 °F 39.2 °F 24.1 °F 49% 29.96 in 10.0 mi SSE 4.6 mph - N/A   Clear
11:53 PM 43.0 °F 39.5 °F 21.9 °F 43% 29.94 in 10.0 mi SE 5.8 mph - N/A   Clear